Location: Buckenweiler
(49.0667°N, 10.2500°E)
Time: 21:33:42
(UTC+00:00)

Cosmos 1470 Rocket - Pass Details

Date: 18 January 2026
Orbit: 598 x 625 km, 82.5° (Epoch: 18 February)

Event Time Altitude Azimuth Distance (km) Brightness Sun altitude
Rises 05:50:16 0° 187° (S) 2,839 7.1 -12.1°
Reaches altitude 10° 05:52:28 10° 187° (S) 1,938 6.2 -11.7°
Maximum altitude 05:56:45 88° 102° (ESE) 607 3.5 -11.1°
Drops below altitude 10° 06:01:04 10° 10° (N) 1,949 6.0 -10.4°
Sets 06:03:17 0° 11° (N) 2,857 6.9 -10.0°
